[[{"header":{"parameterUnit":"m.s-1","parameterCategory":1,"la1":30.2991,"la2":30.254,"lo1":-89.0895,"lo2":-89.0444,"dy":0.0017,"dx":0.0017,"nx":28,"ny":28,"refTime":"2024-09-04T09:00:00:Z","depth":0,"parameterNumber":2,"parameterNumberName":"U-component_of_WINDS"},"data":[0,0,0,0,0,0,0,0,0,0,0,0,0,0,0,0,0,0,0,0,0,0,0,0,0,0,0,0,0,0,0,0,0,0,0,0,0,0,0,0,0,0,0,0,0,0,0,0,0,0,0,0,0,0,0,0,0,0,-5.5884,-5.5885,0,-5.5892,-5.5893,-5.5893,-5.5719,-5.5715,-5.571,-5.5706,-5.5714,-5.5719,-5.5723,0,0,0,0,0,0,0,0,0,0,0,0,0,-5.5719,-5.5723,-5.5884,-5.5885,-5.5885,-5.5892,-5.5893,-5.5893,-5.572,-5.5714,-5.5709,-5.5703,-5.5713,-5.5718,-5.5724,0,0,0,0,0,0,0,0,0,0,0,0,0,-5.5766,-5.5725,-5.5884,-5.5799,-5.5792,-5.5892,-5.5893,-5.5893,-5.5721,-5.5714,-5.5707,-5.5701,-5.5711,-5.5718,-5.5725,-5.5907,0,0,-5.5746,-5.5749,0,0,0,0,0,0,0,0,-5.5763,-5.5772,-5.5812,-5.5805,-5.5797,-5.5798,-5.5837,-5.5898,-5.5723,-5.5748,-5.5705,-5.5697,-5.5748,-5.5751,-5.5768,-5.5907,-5.5908,-5.5746,-5.575,-5.5753,-5.5755,0,0,0,0,0,0,0,-5.576,-5.5771,-5.5887,-5.5813,-5.5804,-5.5761,-5.576,-5.5848,-5.5787,-5.5745,-5.5733,-5.5736,-5.5742,-5.5762,-5.5767,-5.5908,-5.5746,-5.5752,-5.5756,-5.5759,-5.6197,-5.6204,0,0,0,0,0,0,-5.5769,-5.5769,-5.5887,-5.5888,-5.5763,-5.577,-5.5768,-5.5805,-5.5786,-5.5776,-5.5742,-5.5728,-5.5754,-5.5759,-5.5767,-5.5978,-5.5753,-5.576,-5.5764,-5.6189,-5.6198,-5.6206,0,0,0,0,0,0,-5.5766,-5.5781,-5.5887,-5.5825,-5.5835,-5.578,-5.5822,-5.5808,-5.5827,-5.5783,-5.5771,-5.5773,-5.5748,-5.5757,-5.5873,-5.5976,-5.5763,-5.5769,-5.618,-5.6192,-5.6202,-5.6404,0,0,0,0,0,0,-5.5762,-5.5781,-5.585,-5.5828,-5.5839,-5.5994,-5.5828,-5.5814,-5.584,-5.5822,-5.5809,-5.58,-5.5743,-5.5864,-5.588,-5.5982,-5.5774,-5.6171,-5.6185,-5.6199,-5.6388,-5.6421,-5.6449,0,0,0,0,0,-5.5757,-5.5906,-5.5854,-5.5869,-5.5924,-5.6,-5.6006,-5.5938,-5.5849,-5.5917,-5.5889,-5.5801,-5.5963,-5.5877,-5.5894,-5.5999,-5.6164,-5.6181,-5.6198,-5.6374,-5.6414,-5.6448,0,0,0,0,0,0,-5.5942,-5.5902,-5.5844,-5.5991,-5.6,-5.5971,-5.6055,-5.5983,-5.6017,-5.5999,-5.5912,-5.5911,-5.6041,-5.6032,-5.5937,-5.6175,-5.6047,-5.6069,-5.6176,-5.6214,-5.6244,-5.6243,-5.578,0,0,0,0,0,-5.6,-5.6065,-5.6026,-5.616,-5.6168,-5.6112,-5.6142,-5.6088,-5.6094,-5.6097,-5.6077,-5.6087,-5.6139,-5.6176,-5.6222,-5.6386,-5.638,-5.6467,-5.6497,-5.6522,-5.6541,-5.6627,-5.6664,-5.6262,-5.6262,-5.6261,0,0,-5.612,-5.6106,-5.6153,-5.6197,-5.6198,-5.6267,-5.6116,-5.6195,-5.6246,-5.6109,-5.6217,-5.6204,-5.6208,-5.6349,-5.641,-5.6345,-5.6651,-5.6544,-5.6564,-5.6569,-5.6648,-5.6686,-5.672,-5.6273,-5.6271,-5.6269,0,0,-5.6375,-5.6371,-5.6482,-5.6486,-5.6489,-5.645,-5.6478,-5.6459,-5.6444,-5.6552,-5.6451,-5.651,-5.6603,-5.661,-5.6626,-5.6884,-5.6804,-5.6902,-5.7061,-5.7145,-5.7177,-5.7204,-5.7296,-5.733,-5.6921,-5.6922,-5.6922,0,-5.6524,-5.6624,-5.6548,-5.6634,-5.6656,-5.6536,-5.6647,-5.6655,-5.6674,-5.6692,-5.6619,-5.6733,-5.6728,-5.6868,-5.6932,-5.6949,-5.6976,-5.6902,-5.7178,-5.7205,-5.723,-5.7316,-5.7351,-5.6933,-5.6932,-5.6931,-5.693,0,-5.6807,-5.6878,-5.6967,-5.6988,-5.702,-5.7119,-5.7057,-5.7099,-5.7043,-5.7013,-5.7123,-5.7113,-5.7155,-5.7184,-5.713,-5.7318,-5.7277,-5.7193,-5.7063,-5.7281,-5.7361,-5.7393,-5.695,-5.6946,-5.6942,-5.6939,0,0,-5.7177,-5.7155,-5.7189,-5.7196,-5.7192,-5.7245,-5.7338,-5.7379,-5.7416,-5.7434,-5.7509,-5.7591,-5.7513,-5.7531,-5.7477,-5.7552,-5.7756,-5.7458,-5.7456,-5.7513,-5.7961,-5.8024,-5.8063,-5.7703,-5.7709,-5.7714,-5.796,0,-5.7424,-5.7581,-5.7516,-5.7679,-5.7744,-5.7631,-5.7712,-5.7718,-5.7692,-5.7743,-5.7714,-5.7773,-5.7666,-5.7676,-5.7745,-5.7717,-5.7845,-5.7698,-5.7773,-5.7776,-5.7774,-5.8105,-5.8171,-5.8404,-5.7991,-5.7996,-5.8,0,-5.7732,-5.7762,-5.7932,-5.7915,-5.794,-5.8014,-5.8046,-5.8096,-5.8101,-5.8076,-5.8098,-5.8027,-5.8117,-5.7989,-5.8112,-5.8014,-5.8041,-5.8032,-5.8039,-5.8043,-5.7901,-5.8117,-5.8477,-5.8512,-5.8048,-5.8045,-5.8041,0,-5.7984,-5.8067,-5.8179,-5.8189,-5.8173,-5.8228,-5.8224,-5.8221,-5.825,-5.8278,-5.8295,-5.8334,-5.8356,-5.8387,-5.8329,-5.8241,-5.846,-5.8327,-5.8442,-5.8444,-5.8493,-5.849,-5.8861,-5.8512,-5.8512,-5.8511,-5.851,0,-5.8266,-5.8374,-5.8292,-5.8361,-5.8479,-5.8403,-5.8522,-5.8505,-5.8505,-5.8568,-5.8473,-5.8535,-5.8455,-5.851,-5.8465,-5.8573,-5.8584,-5.8566,-5.8553,-5.8574,-5.8577,-5.859,-5.8572,-5.852,-5.8518,-5.8517,-5.8515,0,-5.8567,-5.8517,-5.8631,-5.8607,-5.8603,-5.8691,-5.867,-5.8733,-5.87,-5.8782,-5.8797,-5.8747,-5.8805,-5.8751,-5.8807,-5.8777,-5.8922,-5.8885,-5.892,-5.891,-5.9027,-5.9017,-5.9419,-5.9468,-5.9089,-5.9093,-5.9096,0,-5.8749,-5.883,-5.8814,-5.885,-5.8852,-5.8911,-5.8939,-5.8868,-5.8902,-5.8913,-5.8975,-5.9026,-5.9062,-5.9162,-5.9131,-5.9173,-5.9137,-5.9275,-5.9142,-5.9161,-5.9138,-5.9133,-5.914,-5.9301,-5.9306,-5.931,-5.9313,0,-5.9078,-5.9049,-5.9094,-5.9131,-5.9168,-5.9194,-5.9212,-5.9247,-5.9173,-5.9216,-5.9275,-5.9304,-5.9361,-5.9413,-5.9446,-5.9441,-5.9365,-5.9355,-5.9383,-5.9405,-5.9422,-5.9414,-5.8992,-5.9346,-5.9342,-5.934,-5.9338,-5.9337,-5.9325,-5.9391,-5.939,-5.9443,-5.9449,-5.9469,-5.9526,-5.9501,-5.9549,-5.959,-5.9545,-5.9617,-5.962,-5.9656,-5.966,-5.9716,-5.9658,-5.97,-5.971,-5.9721,-5.9738,-5.9414,-5.9722,-5.9721,-5.972,-5.9719,-5.9718,0,-5.9648,-5.9642,-5.9691,-5.972,-5.9762,-5.9687,-5.9703,-5.9743,-5.9808,-5.9816,-5.9855,-5.9923,-5.9972,-5.9945,-5.9988,-6.0038,-6.0004,-6.0051,-6.0046,-6.0047,-5.9788,-5.9758,-6.0078,-6.0078,-6.0078,-6.0078,-6.0078,-6.0078,-5.9821,-5.9928,-5.99,-6.001,-6.0002,-6.0072,-6.0088,-6.0105,-6.0111,-6.0192,-6.0232,-6.0214,-6.0209,-6.025,-6.0293,-6.0283,-6.0303,-6.0363,-6.0342,-6.01,-6.0065,-6.0031,-6.0003,-6.0368,-6.0369,-6.0595,-6.0597,-6.0599]},{"header":{"parameterUnit":"m.s-1","parameterCategory":1,"la1":30.2991,"la2":30.254,"lo1":-89.0895,"lo2":-89.0444,"dy":0.0017,"dx":0.0017,"nx":28,"ny":28,"refTime":"2024-09-04T09:00:00:Z","depth":0,"parameterNumber":3,"parameterNumberName":"V-component_of_WINDS"},"data":[0,0,0,0,0,0,0,0,0,0,0,0,0,0,0,0,0,0,0,0,0,0,0,0,0,0,0,0,0,0,0,0,0,0,0,0,0,0,0,0,0,0,0,0,0,0,0,0,0,0,0,0,0,0,0,0,0,0,0.5832,0.5832,0,0.5816,0.5816,0.5816,0.5712,0.571,0.5707,0.5705,0.5692,0.5694,0.5696,0,0,0,0,0,0,0,0,0,0,0,0,0,0.578,0.5781,0.5832,0.5832,0.5832,0.5816,0.5816,0.5816,0.5713,0.571,0.5707,0.5704,0.5691,0.5694,0.5696,0,0,0,0,0,0,0,0,0,0,0,0,0,0.5787,0.5782,0.5832,0.5779,0.5774,0.5816,0.5816,0.5816,0.5714,0.571,0.5706,0.5702,0.569,0.5693,0.5696,0.579,0,0,0.5705,0.5707,0,0,0,0,0,0,0,0,0.5787,0.5789,0.5787,0.5783,0.5777,0.5762,0.5792,0.5807,0.5714,0.5737,0.5705,0.5701,0.5719,0.5719,0.5724,0.5789,0.5789,0.5706,0.5708,0.5709,0.571,0,0,0,0,0,0,0,0.5786,0.5789,0.5826,0.5787,0.5781,0.5757,0.5754,0.5795,0.5749,0.5734,0.5727,0.5726,0.5715,0.5722,0.5723,0.5789,0.5706,0.5708,0.571,0.5711,0.5932,0.5936,0,0,0,0,0,0,0.5793,0.579,0.5826,0.5825,0.5773,0.5761,0.5758,0.5771,0.5748,0.5741,0.5729,0.5721,0.5718,0.572,0.5722,0.5832,0.5709,0.5712,0.5713,0.5928,0.5933,0.5938,0,0,0,0,0,0,0.5792,0.5797,0.5827,0.5805,0.5807,0.5766,0.5782,0.5773,0.5779,0.5744,0.5736,0.5744,0.5716,0.5718,0.5774,0.583,0.5713,0.5716,0.5924,0.593,0.5936,0.6052,0,0,0,0,0,0,0.5791,0.5797,0.5831,0.5807,0.5809,0.5878,0.5785,0.5775,0.5784,0.5773,0.5756,0.575,0.5713,0.577,0.5777,0.5832,0.5718,0.5918,0.5926,0.5934,0.6043,0.6061,0.6077,0,0,0,0,0,0.5789,0.5865,0.5834,0.5839,0.585,0.5882,0.5883,0.5838,0.5789,0.5824,0.5802,0.575,0.5823,0.5777,0.5784,0.5841,0.5915,0.5924,0.5933,0.6035,0.6058,0.6077,0,0,0,0,0,0,0.5898,0.5861,0.5825,0.5895,0.5892,0.5864,0.5906,0.5863,0.5875,0.5865,0.5809,0.5806,0.5872,0.5861,0.5811,0.5931,0.586,0.5871,0.5936,0.5957,0.5973,0.5975,0.572,0,0,0,0,0,0.593,0.5957,0.5923,0.5988,0.5989,0.5948,0.596,0.5926,0.5921,0.592,0.5902,0.59,0.5923,0.5939,0.5958,0.6041,0.6037,0.6084,0.6101,0.6115,0.6125,0.6171,0.6192,0.5968,0.5968,0.5968,0,0,0.5996,0.5979,0.6,0.601,0.6003,0.6035,0.5948,0.5984,0.6007,0.5925,0.5977,0.5965,0.5959,0.603,0.606,0.6024,0.6186,0.6127,0.6138,0.6141,0.6183,0.6204,0.6223,0.5974,0.5973,0.5972,0,0,0.6134,0.6123,0.6176,0.6172,0.6163,0.6136,0.615,0.6128,0.6116,0.6167,0.6108,0.6135,0.6175,0.6174,0.6179,0.6318,0.6272,0.6326,0.6416,0.6461,0.6478,0.6494,0.6545,0.6564,0.6336,0.6337,0.6337,0,0.6218,0.6261,0.621,0.625,0.6257,0.6184,0.624,0.6238,0.6237,0.6245,0.6203,0.6253,0.6244,0.6315,0.6349,0.6355,0.637,0.6328,0.648,0.6495,0.6508,0.6557,0.6576,0.6343,0.6343,0.6342,0.6341,0,0.6365,0.6397,0.6441,0.6441,0.6453,0.6501,0.646,0.6478,0.6444,0.6422,0.6476,0.6463,0.6479,0.6493,0.6459,0.656,0.6537,0.6489,0.6416,0.6537,0.6582,0.66,0.6353,0.6351,0.6349,0.6347,0,0,0.657,0.6542,0.656,0.656,0.6546,0.657,0.6615,0.663,0.6648,0.665,0.6688,0.6724,0.668,0.6686,0.6652,0.6691,0.6805,0.6638,0.6637,0.6671,0.6917,0.6955,0.6977,0.6774,0.6777,0.678,0.6918,0,0.6703,0.6778,0.6734,0.6816,0.6846,0.6778,0.6818,0.6815,0.6796,0.6819,0.6799,0.6826,0.6764,0.6767,0.6803,0.6784,0.6854,0.6773,0.6811,0.6813,0.6816,0.7,0.704,0.7171,0.6935,0.6938,0.694,0,0.6868,0.6877,0.6962,0.6944,0.6954,0.6991,0.7002,0.7025,0.7021,0.7005,0.7012,0.6969,0.7015,0.6943,0.7006,0.6952,0.6965,0.6958,0.6962,0.6965,0.6885,0.701,0.7211,0.7232,0.6967,0.6965,0.6963,0,0.7011,0.7044,0.71,0.7101,0.7082,0.7109,0.7103,0.7095,0.7107,0.7117,0.7125,0.7141,0.7151,0.7165,0.7128,0.7078,0.7197,0.7121,0.7187,0.7188,0.7215,0.7215,0.7424,0.7222,0.7222,0.7221,0.7221,0,0.7164,0.722,0.7164,0.7198,0.7259,0.7209,0.7271,0.7257,0.7251,0.7283,0.7226,0.7257,0.7206,0.7233,0.7205,0.7263,0.7267,0.7257,0.7249,0.7263,0.7264,0.7271,0.7262,0.7227,0.7225,0.7224,0.7224,0,0.7335,0.7299,0.7356,0.7332,0.7328,0.7374,0.7355,0.7387,0.7364,0.7406,0.7413,0.7378,0.7407,0.7372,0.7398,0.7379,0.7458,0.7436,0.746,0.7454,0.7522,0.7517,0.7744,0.7772,0.7551,0.7554,0.7555,0,0.7436,0.7476,0.7458,0.7475,0.7471,0.7499,0.7511,0.7465,0.7481,0.748,0.7513,0.7537,0.7554,0.7604,0.7583,0.7603,0.7582,0.766,0.7584,0.7598,0.7585,0.7584,0.7589,0.7676,0.7679,0.7681,0.7683,0,0.7619,0.76,0.7619,0.7634,0.765,0.7659,0.7664,0.7682,0.7633,0.7654,0.7683,0.7696,0.7723,0.7749,0.7764,0.7758,0.7714,0.7707,0.7723,0.7738,0.7751,0.7747,0.7503,0.7702,0.77,0.7698,0.7697,0.7697,0.7759,0.7793,0.7785,0.781,0.7809,0.7815,0.7844,0.7826,0.7849,0.7866,0.7838,0.7875,0.7872,0.7887,0.7887,0.7916,0.7883,0.7906,0.7913,0.792,0.7931,0.7745,0.7919,0.7918,0.7918,0.7917,0.7917,0,0.7941,0.7933,0.7956,0.7965,0.7985,0.7939,0.7943,0.7963,0.7996,0.7997,0.8015,0.8049,0.8074,0.8055,0.8076,0.8104,0.8084,0.8111,0.8109,0.8109,0.7958,0.7943,0.8127,0.8127,0.8127,0.8127,0.8127,0.8127,0.8038,0.8094,0.8074,0.813,0.8122,0.8157,0.8163,0.817,0.817,0.8211,0.8231,0.8218,0.8211,0.8232,0.8254,0.8247,0.8259,0.8294,0.8281,0.814,0.812,0.81,0.8085,0.8296,0.8296,0.8429,0.843,0.8431]}]]